Weather History for Rutherfordton, NC

Change the Weather History Date:

Saturday, May 3, 2014

  Actual Average (KAVL) Record (KAVL)
Temperature  
Mean Temperature 60 °F 60 °F  
Max Temperature 77 °F 72 °F 85 °F (1965)
Min Temperature 43 °F 48 °F 31 °F (1909)
Degree Days  
Heating Degree Days 5 6  
Month to date heating degree days 18  
Since 1 July heating degree days 4090  
Cooling Degree Days 0 1  
Month to date cooling degree days 2  
Year to date cooling degree days 10  
Growing Degree Days 10 (Base 50)    
Moisture  
Dew Point 41 °F    
Average Humidity 54    
Maximum Humidity 95    
Minimum Humidity 25    
Precipitation  
Precipitation 0.00 in 0.12 in 1.99 in (1972)
Month to date precipitation 0.35  
Year to date precipitation 14.94  
Snow  
Snow 0.00 in 0.00 in 0.00 in ()
Month to date snowfall 0.0  
Since 1 July snowfall 9.9  
Snow Depth -    
Sea Level Pressure  
Sea Level Pressure 29.93 in    
Wind  
Wind Speed 3 mph (WNW)    
Max Wind Speed 16 mph    
Max Gust Speed 25 mph    
Visibility 10 miles    
Events      
T = Trace of Precipitation, MM = Missing Value Source: NWS Daily Summary

Daily Weather History Graph

Daily Weather History Graph

Search for Another Location

Airport:

Trip Planner

Search our weather history database for the weather conditions in past years. The results will help you decide how hot, cold, wet, or windy it might be!

Date:

Astronomy

May. 03, 2014 Rise Set
Actual Time 6:34 AM EDT 8:15 PM EDT
Civil Twilight 6:06 AM EDT 8:43 PM EDT
Nautical Twilight 5:33 AM EDT 9:16 PM EDT
Astronomical Twilight 4:58 AM EDT 9:51 PM EDT
Moon 10:04 AM EDT (5/3) No Moon Set
Length of Visible Light 14h 36m
Length of Day
13h 41m
Waxing Crescent, 19% of the Moon is Illuminated
May 3
Waxing Crescent
May 6
First Quarter
May 14
Full
May 21
Last Quarter
May 28
New

Hourly Weather History & Observations

Time (EDT) Temp. Windchill Dew Point Humidity Pressure Visibility Wind Dir Wind Speed Gust Speed Precip Events Conditions
12:15 AM 56.1 °F - 45.7 °F 68% 29.91 in 10.0 mi Calm Calm - N/A   Clear
12:35 AM 54.9 °F - 45.9 °F 72% 29.91 in 10.0 mi Calm Calm - N/A   Clear
12:55 AM 54.5 °F - 45.9 °F 73% 29.92 in 10.0 mi Calm Calm - N/A   Clear
1:15 AM 52.7 °F - 45.9 °F 78% 29.91 in 10.0 mi NNW 3.5 mph - N/A   Clear
1:35 AM 52.0 °F - 45.7 °F 79% 29.90 in 10.0 mi North 3.5 mph - N/A   Clear
1:55 AM 49.6 °F - 45.5 °F 86% 29.90 in 10.0 mi NNW 3.5 mph - N/A   Clear
2:15 AM 50.9 °F - 45.5 °F 82% 29.90 in 10.0 mi Calm Calm - N/A   Clear
2:35 AM 49.5 °F - 45.3 °F 86% 29.90 in 10.0 mi NW 3.5 mph - N/A   Clear
2:55 AM 48.0 °F - 45.3 °F 90% 29.90 in 10.0 mi WNW 4.6 mph - N/A   Clear
3:15 AM 48.6 °F - 45.3 °F 89% 29.90 in 10.0 mi NW 3.5 mph - N/A   Clear
3:35 AM 49.1 °F - 45.0 °F 86% 29.90 in 10.0 mi Calm Calm - N/A   Clear
3:55 AM 48.2 °F - 44.6 °F 87% 29.90 in 10.0 mi Calm Calm - N/A   Clear
4:15 AM 47.5 °F - 44.6 °F 90% 29.91 in 10.0 mi Calm Calm - N/A   Clear
4:35 AM 47.8 °F - 43.9 °F 86% 29.90 in 10.0 mi Calm Calm - N/A   Clear
4:55 AM 45.7 °F - 43.5 °F 92% 29.91 in 10.0 mi Calm Calm - N/A   Clear
5:15 AM 45.9 °F 44.6 °F 43.7 °F 92% 29.91 in 10.0 mi NNW 3.5 mph - N/A   Clear
5:35 AM 45.3 °F - 43.5 °F 93% 29.91 in 10.0 mi Calm Calm - N/A   Clear
5:55 AM 46.6 °F - 42.8 °F 87% 29.92 in 10.0 mi NW 3.5 mph - N/A   Clear
6:15 AM 48.2 °F - 42.4 °F 80% 29.93 in 10.0 mi NNW 3.5 mph - N/A   Clear
6:35 AM 43.9 °F 42.3 °F 42.6 °F 95% 29.93 in 10.0 mi NW 3.5 mph - N/A   Clear
6:55 AM 45.0 °F 43.5 °F 42.4 °F 91% 29.94 in 10.0 mi NW 3.5 mph - N/A   Clear
7:15 AM 45.0 °F 41.2 °F 42.6 °F 91% 29.94 in 10.0 mi West 6.9 mph - N/A   Clear
7:35 AM 47.3 °F - 44.1 °F 88% 29.95 in 10.0 mi Calm Calm - N/A   Clear
7:55 AM 49.5 °F - 45.0 °F 84% 29.95 in 10.0 mi NNW 3.5 mph - N/A   Clear
8:15 AM 52.2 °F - 45.7 °F 79% 29.96 in 10.0 mi Calm Calm - N/A   Clear
8:55 AM 57.2 °F - 45.7 °F 65% 29.96 in 10.0 mi Calm Calm - N/A   Clear
9:15 AM 59.4 °F - 42.8 °F 54% 29.96 in 10.0 mi North 4.6 mph - N/A   Clear
9:35 AM 61.3 °F - 41.2 °F 48% 29.97 in 10.0 mi North 5.8 mph - N/A   Clear
9:55 AM 62.4 °F - 38.5 °F 41% 29.97 in 10.0 mi North 4.6 mph - N/A   Clear
10:15 AM 62.6 °F - 38.3 °F 41% 29.97 in 10.0 mi Calm Calm - N/A   Clear
10:35 AM 63.5 °F - 41.2 °F 44% 29.98 in 10.0 mi Calm Calm - N/A   Clear
10:55 AM 63.1 °F - 39.6 °F 42% 29.98 in 10.0 mi NW 3.5 mph - N/A   Clear
11:15 AM 64.8 °F - 39.2 °F 39% 29.97 in 10.0 mi Calm Calm - N/A   Clear
11:35 AM 66.0 °F - 39.2 °F 37% 29.97 in 10.0 mi NW 3.5 mph - N/A   Clear
12:15 PM 66.9 °F - 38.8 °F 36% 29.97 in 10.0 mi Calm Calm - N/A   Clear
12:35 PM 67.6 °F - 36.9 °F 32% 29.97 in 10.0 mi Calm Calm - N/A   Clear
12:55 PM 68.4 °F - 38.7 °F 34% 29.96 in 10.0 mi SW 4.6 mph - N/A   Clear
1:15 PM 68.5 °F - 37.6 °F 32% 29.96 in 10.0 mi WSW 3.5 mph - N/A   Clear
1:35 PM 69.1 °F - 37.9 °F 32% 29.95 in 10.0 mi South 3.5 mph - N/A   Clear
1:55 PM 69.1 °F - 36.7 °F 30% 29.95 in 10.0 mi SSW 3.5 mph - N/A   Clear
2:15 PM 70.9 °F - 39.0 °F 31% 29.94 in 10.0 mi South 6.9 mph - N/A   Clear
2:35 PM 72.7 °F - 40.5 °F 31% 29.93 in 10.0 mi SSE 10.4 mph - N/A   Clear
2:55 PM 73.6 °F - 38.7 °F 28% 29.92 in 10.0 mi West 8.1 mph 24.2 mph N/A   Clear
3:15 PM 74.8 °F - 38.3 °F 27% 29.92 in 10.0 mi WNW 10.4 mph - N/A   Clear
3:35 PM 75.4 °F - 38.1 °F 26% 29.91 in 10.0 mi NW 12.7 mph 24.2 mph N/A   Clear
3:55 PM 75.9 °F - 38.8 °F 26% 29.91 in 10.0 mi WNW 10.4 mph 21.9 mph N/A   Clear
4:15 PM 76.6 °F - 38.8 °F 26% 29.90 in 10.0 mi WNW 15.0 mph 23.0 mph N/A   Clear
4:35 PM 76.1 °F - 37.9 °F 25% 29.90 in 10.0 mi WNW 12.7 mph 25.3 mph N/A   Clear
4:55 PM 74.5 °F - 37.9 °F 27% 29.90 in 10.0 mi WNW 15.0 mph 21.9 mph N/A   Mostly Cloudy
5:15 PM 77.2 °F - 39.7 °F 26% 29.90 in 10.0 mi NW 8.1 mph 17.3 mph N/A   Mostly Cloudy
5:35 PM 76.8 °F - 39.6 °F 26% 29.90 in 10.0 mi West 11.5 mph 17.3 mph N/A   Scattered Clouds
5:55 PM 76.5 °F - 39.6 °F 27% 29.90 in 10.0 mi WNW 12.7 mph 20.7 mph N/A   Clear
6:15 PM 75.6 °F - 38.1 °F 26% 29.91 in 10.0 mi WNW 16.1 mph 23.0 mph N/A   Clear
6:35 PM 75.2 °F - 39.6 °F 28% 29.91 in 10.0 mi WNW 12.7 mph 18.4 mph N/A   Clear
6:55 PM 74.3 °F - 39.0 °F 28% 29.91 in 10.0 mi WNW 11.5 mph - N/A   Clear
7:15 PM 73.8 °F - 38.8 °F 28% 29.91 in 10.0 mi WNW 13.8 mph - N/A   Clear
7:35 PM 72.9 °F - 39.9 °F 30% 29.92 in 10.0 mi NW 8.1 mph - N/A   Clear
7:55 PM 71.4 °F - 39.6 °F 31% 29.93 in 10.0 mi WNW 11.5 mph - N/A   Clear
8:15 PM 69.6 °F - 40.1 °F 34% 29.94 in 10.0 mi WNW 11.5 mph - N/A   Clear
8:35 PM 67.8 °F - 40.1 °F 36% 29.94 in 10.0 mi WNW 10.4 mph - N/A   Clear
8:55 PM 66.2 °F - 40.5 °F 39% 29.95 in 10.0 mi West 4.6 mph - N/A   Clear
9:15 PM 64.8 °F - 41.0 °F 42% 29.95 in 10.0 mi West 4.6 mph - N/A   Clear
9:35 PM 63.7 °F - 41.4 °F 44% 29.96 in 10.0 mi WNW 4.6 mph - N/A   Clear
9:55 PM 63.0 °F - 41.0 °F 45% 29.97 in 10.0 mi Calm Calm - N/A   Clear
10:15 PM 61.9 °F - 41.5 °F 47% 29.97 in 10.0 mi Calm Calm - N/A   Clear
10:35 PM 61.3 °F - 42.1 °F 49% 29.97 in 10.0 mi Calm Calm - N/A   Clear
10:55 PM 59.7 °F - 43.0 °F 54% 29.98 in 10.0 mi SSE 3.5 mph - N/A   Clear
11:15 PM 63.3 °F - 41.0 °F 44% 29.98 in 10.0 mi SSW 3.5 mph - N/A   Clear
11:35 PM 62.2 °F - 41.5 °F 47% 29.99 in 10.0 mi West 3.5 mph - N/A   Clear
11:55 PM 61.3 °F - 41.9 °F 49% 29.99 in 10.0 mi Calm Calm - N/A   Clear